Location: Unspecified
(43.8044°N, 11.0278°E)
Time: 19:24:00
(UTC+02:00)

CZ-3 Stage 3 - Visible Passes

Search period start: 25 September 2016 00:00
Search period end: 05 October 2016 00:00
Orbit: 489 x 34714 km, 30.6° (Epoch: 21 September)

Date Brightness Start Highest point End Pass type
(mag) Time Alt. Az. Time Alt. Az. Time Alt. Az.
25 Sep 9.7 07:44:09 10° E 08:57:21 15° E 09:43:06 10° ENE visible
25 Sep 5.7 19:57:47 10° WNW 20:53:39 28° WSW 21:02:12 10° S visible
27 Sep 7.7 06:42:17 10° ESE 12:37:14 55° SE 13:48:10 10° E visible
28 Sep 9.7 07:28:03 10° E 08:47:37 15° E 09:36:03 10° ENE visible
28 Sep 5.8 19:47:45 10° WNW 20:44:48 27° WSW 20:53:32 10° S visible
30 Sep 7.8 06:27:57 10° ESE 12:27:28 56° SE 13:39:40 10° E visible
01 Oct 9.7 07:12:13 10° E 08:37:52 16° E 09:28:47 10° ENE visible
01 Oct 5.9 19:37:38 10° WNW 20:35:56 27° WSW 20:44:51 10° S visible
03 Oct 7.8 06:13:41 10° ESE 12:17:39 56° SE 13:31:09 10° E visible
04 Oct 9.7 06:56:36 10° E 08:28:06 17° E 09:21:19 10° ENE visible
04 Oct 6.0 19:27:24 10° WNW 20:27:02 26° WSW 20:36:10 10° S visible
